Regional Weather Roundup
Issued by NWS

Home | Current Version | Previous Version | Text Only | Print | Product List | Glossary On
Versions: 1 2 3 4 5 6 7 8 9 10 11 12 13 14 15 16 17 18 19 20 21 22 23 24 25 26 27 28 29 30 31 32 33 34 35 36 37 38 39 40 41 42 43 44 45 46 47 48 49 50
000
ASUS45 KBOI 251010
RWRID
WEATHER ROUNDUP FOR IDAHO
NATIONAL WEATHER SERVICE BOISE ID
300 AM MST SUN JAN 25 2015

NOTE: "FAIR" INDICATES FEW OR NO CLOUDS BELOW 12000 FEET
WITH NO SIGNIFICANT WEATHER AND/OR OBSTRUCTIONS TO VISIBILITY

IDZ012-014-251100-
SOUTHWEST IDAHO


CITY           SKY/WX    TMP DP  RH WIND       PRES   REMARKS
BOISE          CLEAR     29  27  92 E3        30.47F
CALDWELL       CLEAR     28  21  74 NE3       30.49F
MOUNTAIN HOME  CLEAR     29  27  92 E5        30.47S WCI  24
$$

IDZ016-017-251100-
SOUTHCENTRAL IDAHO


CITY           SKY/WX    TMP DP  RH WIND       PRES   REMARKS
BURLEY         CLOUDY    32  28  85 CALM      30.42S
JEROME         CLEAR     26  23  88 NE9       30.45R WCI  17
TWIN FALLS     CLEAR     29  25  85 CALM      30.43S
$$

IDZ019>023-251100-
SOUTHEAST IDAHO


CITY           SKY/WX    TMP DP  RH WIND       PRES   REMARKS
IDAHO FALLS    CLOUDY    27  24  89 N5        30.45S WCI  22
POCATELLO      CLOUDY    30  29  96 N5        30.46R WCI  25
REXBURG        CLOUDY    25  25 100 CALM      30.45S FOG
$$

IDZ006-010-011-018-031-032-251100-
CENTRAL IDAHO MOUNTAINS


CITY           SKY/WX    TMP DP  RH WIND       PRES   REMARKS
MCCALL         CLOUDY    33  32  96 CALM      30.41S
HAILEY         CLEAR     23  21  93 N6        30.43S WCI  16
STANLEY          N/A     30  26  85 VRB3      30.45R
SALMON         CLOUDY    28  27  93 CALM      30.40R
CHALLIS        CLEAR     26  25  96 CALM      30.38S
$$

IDZ002-004-006-007-026-251100-
NORTHERN IDAHO


CITY           SKY/WX    TMP DP  RH WIND       PRES   REMARKS
LEWISTON       CLOUDY    50  39  66 VRB3      30.28R
LOWELL           N/A     37  35  92 NW5       30.36S WCI  33
COEUR D`ALENE  CLOUDY    45  43  93 S10       30.21S
MULLAN PASS    FOG       39  39 100 VRB7G21   30.23S VSB 1/4 WCI  34
$$



USA.gov is the U.S. government's official web portal to all federal, state and local government web resources and services.